Location: Newark
(13.8625°N, 100.5144°E)
Time: 15:08:55
(UTC+00:00)

Envisat - Visible Passes

Search period start: 01 April 2020 00:00
Search period end: 11 April 2020 00:00
Orbit: 764 x 766 km, 98.1° (Epoch: 01 April)

Date Brightness Start Highest point End Pass type
(mag) Time Alt. Az. Time Alt. Az. Time Alt. Az.
01 Apr 6.3 12:35:05 10° WSW 12:36:29 11° W 12:37:54 10° W visible
02 Apr 5.1 11:55:13 10° SSW 11:59:41 32° W 12:04:10 10° NW visible
02 Apr 5.9 22:40:44 10° NE 22:44:20 20° E 22:47:56 10° SE visible
04 Apr 6.0 12:22:13 10° SW 12:25:10 16° W 12:28:07 10° WNW visible
05 Apr 4.5 11:43:36 10° S 11:48:23 43° W 11:53:11 10° NNW visible
05 Apr 6.1 22:30:21 10° ENE 22:33:00 14° E 22:35:40 10° SE visible
07 Apr 5.7 12:10:05 10° SSW 12:13:51 21° W 12:17:38 10° NW visible
08 Apr 6.5 22:21:23 10° E 22:21:40 10° E 22:21:59 10° ESE visible
10 Apr 5.3 11:58:13 10° SSW 12:02:32 28° W 12:06:51 10° NW visible
10 Apr 5.8 22:43:19 10° NE 22:47:11 22° E 22:51:02 10° SSE visible
